When you browse on this site, cookies collect data to enhance your experience and personalize the content and advertising you see.
Visit our Privacy Policy to learn more. By continuing to use the site, you agree to this use of cookies and data.
  • In Hungary
  • List of Countries
  • For 7 days
  • Water Temperature
  • Satellite Maps
  • Weather Map
  • News
  • Weather Widgets
  • user-avatar
    Login

    Hourly Weather Vatican

    Today, 24 February, Sunday

    Time Temperature Precipitation Wind Pressure Humidity
    00:00 +2°C° 0 mm 9 mps 768 mmHg 44%
    01:00 +2°C° 0 mm 9 mps 768 mmHg 45%
    02:00 +2°C° 0 mm 9 mps 768 mmHg 45%
    03:00 +2°C° 0 mm 8 mps 768 mmHg 45%
    04:00 +1°C° 0 mm 8 mps 768 mmHg 45%
    05:00 +1°C° 0 mm 8 mps 768 mmHg 45%
    06:00 +2°C° 0 mm 7 mps 769 mmHg 45%
    07:00 +2°C° 0 mm 7 mps 769 mmHg 45%
    08:00 +3°C° 0 mm 6 mps 769 mmHg 42%
    09:00 +4°C° 0 mm 6 mps 769 mmHg 40%
    10:00 +5°C° 0 mm 6 mps 769 mmHg 37%
    11:00 +7°C° 0 mm 5 mps 769 mmHg 34%
    12:00 +8°C° 0 mm 4 mps 769 mmHg 30%
    13:00 +11°C° 0 mm 4 mps 769 mmHg 27%
    14:00 +11°C° 0 mm 4 mps 769 mmHg 26%
    15:00 +12°C° 0 mm 3 mps 769 mmHg 26%
    16:00 +12°C° 0 mm 3 mps 769 mmHg 25%
    17:00 +12°C° 0 mm 3 mps 769 mmHg 27%
    18:00 +12°C° 0 mm 2 mps 769 mmHg 29%
    19:00 +10°C° 0 mm 2 mps 770 mmHg 31%
    20:00 +9°C° 0 mm 3 mps 770 mmHg 34%
    21:00 +8°C° 0 mm 4 mps 770 mmHg 37%
    22:00 +7°C° 0 mm 4 mps 771 mmHg 40%
    23:00 +7°C° 0 mm 4 mps 771 mmHg 41%

    Tomorrow, 25 February, Monday

    Time Temperature Precipitation Wind Pressure Humidity
    00:00 +6°C° 0 mm 4 mps 771 mmHg 43%
    01:00 +6°C° 0 mm 4 mps 771 mmHg 45%
    02:00 +5°C° 0 mm 5 mps 771 mmHg 46%
    03:00 +4°C° 0 mm 6 mps 771 mmHg 47%
    04:00 +4°C° 0 mm 6 mps 771 mmHg 48%
    05:00 +4°C° 0 mm 7 mps 771 mmHg 50%
    06:00 +4°C° 0 mm 7 mps 771 mmHg 52%
    07:00 +4°C° 0 mm 7 mps 770 mmHg 54%
    08:00 +5°C° 0 mm 7 mps 770 mmHg 53%
    09:00 +7°C° 0 mm 6 mps 770 mmHg 51%
    10:00 +8°C° 0 mm 6 mps 770 mmHg 49%
    11:00 +9°C° 0 mm 6 mps 770 mmHg 45%
    12:00 +12°C° 0 mm 5 mps 769 mmHg 42%
    13:00 +13°C° 0 mm 5 mps 769 mmHg 39%
    14:00 +14°C° 0 mm 6 mps 769 mmHg 40%
    15:00 +14°C° 0 mm 7 mps 768 mmHg 42%
    16:00 +15°C° 0 mm 7 mps 768 mmHg 43%
    17:00 +12°C° 0 mm 7 mps 768 mmHg 45%
    18:00 +11°C° 0 mm 7 mps 768 mmHg 47%
    19:00 +10°C° 0 mm 6 mps 768 mmHg 49%
    20:00 +9°C° 0 mm 5 mps 769 mmHg 50%
    21:00 +10°C° 0 mm 4 mps 769 mmHg 51%
    22:00 +9°C° 0 mm 2 mps 770 mmHg 52%
    23:00 +9°C° 0 mm 2 mps 770 mmHg 54%

    Day after tomorrow, 26 February, Tuesday

    Time Temperature Precipitation Wind Pressure Humidity
    00:00 +8°C° 0 mm 2 mps 771 mmHg 56%
    01:00 +8°C° 0 mm 2 mps 771 mmHg 58%
    02:00 +7°C° 0 mm 2 mps 771 mmHg 58%
    03:00 +7°C° 0 mm 3 mps 770 mmHg 59%
    04:00 +7°C° 0 mm 3 mps 770 mmHg 59%
    05:00 +7°C° 0 mm 3 mps 770 mmHg 59%
    06:00 +7°C° 0 mm 3 mps 770 mmHg 59%
    07:00 +6°C° 0 mm 2 mps 770 mmHg 59%
    08:00 +7°C° 0 mm 2 mps 770 mmHg 54%
    09:00 +9°C° 0 mm 2 mps 770 mmHg 49%
    10:00 +11°C° 0 mm 1 mps 770 mmHg 45%
    11:00 +12°C° 0 mm 2 mps 770 mmHg 43%
    12:00 +13°C° 0 mm 2 mps 770 mmHg 42%
    13:00 +13°C° 0 mm 3 mps 770 mmHg 40%
    14:00 +12°C° 0 mm 4 mps 769 mmHg 44%
    15:00 +12°C° 0 mm 4 mps 769 mmHg 48%
    16:00 +12°C° 0 mm 4 mps 769 mmHg 53%
    17:00 +12°C° 0 mm 4 mps 769 mmHg 60%
    18:00 +11°C° 0 mm 4 mps 769 mmHg 67%
    19:00 +11°C° 0 mm 4 mps 769 mmHg 74%
    20:00 +11°C° 0 mm 4 mps 769 mmHg 75%
    21:00 +11°C° 0 mm 3 mps 769 mmHg 76%
    22:00 +11°C° 0 mm 3 mps 769 mmHg 77%
    23:00 +10°C° 0 mm 2 mps 769 mmHg 74%

    27 February, Wednesday

    Time Temperature Precipitation Wind Pressure Humidity
    00:00 +10°C° 0 mm 2 mps 768 mmHg 72%
    01:00 +10°C° 0 mm 2 mps 768 mmHg 69%
    02:00 +10°C° 0 mm 2 mps 768 mmHg 64%
    03:00 +10°C° 0 mm 2 mps 768 mmHg 58%
    04:00 +10°C° 0 mm 2 mps 767 mmHg 53%
    05:00 +10°C° 0 mm 3 mps 767 mmHg 49%
    06:00 +10°C° 0 mm 3 mps 767 mmHg 45%
    07:00 +10°C° 0 mm 3 mps 767 mmHg 42%
    08:00 +11°C° 0 mm 3 mps 767 mmHg 42%
    09:00 +13°C° 0 mm 4 mps 767 mmHg 42%
    10:00 +14°C° 0 mm 4 mps 767 mmHg 42%
    11:00 +17°C° 0 mm 4 mps 767 mmHg 40%
    12:00 +18°C° 0 mm 3 mps 767 mmHg 39%
    13:00 +20°C° 0 mm 3 mps 767 mmHg 37%
    14:00 +20°C° 0 mm 3 mps 766 mmHg 38%
    15:00 +20°C° 0 mm 2 mps 766 mmHg 38%
    16:00 +20°C° 0 mm 2 mps 766 mmHg 39%
    17:00 +19°C° 0 mm 3 mps 766 mmHg 42%
    18:00 +18°C° 0 mm 3 mps 766 mmHg 46%
    19:00 +17°C° 0 mm 4 mps 766 mmHg 49%
    20:00 +16°C° 0 mm 3 mps 767 mmHg 47%
    21:00 +14°C° 0 mm 3 mps 767 mmHg 45%
    22:00 +14°C° 0 mm 3 mps 767 mmHg 43%
    23:00 +13°C° 0 mm 3 mps 767 mmHg 43%

    28 February, Thursday

    Time Temperature Precipitation Wind Pressure Humidity
    00:00 +13°C° 0 mm 2 mps 767 mmHg 43%
    01:00 +13°C° 0 mm 2 mps 767 mmHg 42%
    02:00 +13°C° 0 mm 2 mps 766 mmHg 42%
    03:00 +12°C° 0 mm 2 mps 766 mmHg 42%
    04:00 +12°C° 0 mm 2 mps 766 mmHg 41%
    05:00 +12°C° 0 mm 2 mps 766 mmHg 41%
    06:00 +12°C° 0 mm 2 mps 766 mmHg 41%
    07:00 +10°C° 0 mm 2 mps 766 mmHg 41%
    08:00 +12°C° 0 mm 2 mps 766 mmHg 40%
    09:00 +14°C° 0 mm 2 mps 767 mmHg 40%
    10:00 +15°C° 0 mm 2 mps 767 mmHg 40%
    11:00 +15°C° 0 mm 2 mps 767 mmHg 42%
    12:00 +16°C° 0 mm 2 mps 766 mmHg 44%
    13:00 +17°C° 0 mm 2 mps 766 mmHg 46%
    14:00 +17°C° 0 mm 2 mps 766 mmHg 48%
    15:00 +16°C° 0 mm 2 mps 766 mmHg 51%
    16:00 +16°C° 0 mm 2 mps 765 mmHg 54%
    17:00 +15°C° 0 mm 2 mps 765 mmHg 59%
    18:00 +15°C° 0 mm 2 mps 765 mmHg 63%
    19:00 +14°C° 0 mm 1 mps 766 mmHg 68%
    20:00 +13°C° 0 mm 1 mps 766 mmHg 69%
    21:00 +13°C° 0 mm 1 mps 766 mmHg 70%
    22:00 +12°C° 0 mm 0 mps 766 mmHg 71%
    23:00 +13°C° 0 mm 1 mps 765 mmHg 72%

    1 March, Friday

    Time Temperature Precipitation Wind Pressure Humidity
    00:00 +12°C° 0 mm 1 mps 765 mmHg 72%
    01:00 +12°C° 0 mm 1 mps 765 mmHg 73%
    02:00 +12°C° 0 mm 1 mps 765 mmHg 74%
    03:00 +12°C° 0 mm 1 mps 764 mmHg 76%
    04:00 +12°C° 0 mm 1 mps 764 mmHg 77%
    05:00 +12°C° 0 mm 2 mps 764 mmHg 78%
    06:00 +12°C° 0 mm 2 mps 764 mmHg 79%
    07:00 +11°C° 0 mm 3 mps 763 mmHg 81%
    08:00 +11°C° 0 mm 3 mps 763 mmHg 81%
    09:00 +12°C° 0 mm 3 mps 763 mmHg 80%
    10:00 +13°C° 0 mm 3 mps 763 mmHg 80%
    11:00 +13°C° 0 mm 3 mps 763 mmHg 81%
    12:00 +13°C° 0 mm 4 mps 763 mmHg 81%
    13:00 +14°C° 0 mm 4 mps 762 mmHg 81%
    14:00 +14°C° 0 mm 4 mps 762 mmHg 80%
    15:00 +14°C° 0 mm 3 mps 761 mmHg 80%
    16:00 +14°C° 0 mm 3 mps 761 mmHg 79%
    17:00 +13°C° 0 mm 4 mps 761 mmHg 81%
    18:00 +13°C° 0 mm 4 mps 761 mmHg 83%
    19:00 +13°C° 0 mm 4 mps 761 mmHg 85%
    20:00 +12°C° 0 mm 4 mps 761 mmHg 85%
    21:00 +12°C° 0 mm 4 mps 761 mmHg 86%
    22:00 +12°C° 0 mm 4 mps 761 mmHg 86%
    23:00 +12°C° 0 mm 4 mps 761 mmHg 86%
    Show more